Regional Weather Roundup
Issued by NWS

Home | Current Version | Previous Version | Text Only | Print | Product List | Glossary Off
Versions: 1 2 3 4 5 6 7 8 9 10 11 12 13 14 15 16 17 18 19 20 21 22 23 24 25 26 27 28 29 30 31 32 33 34 35 36 37 38 39 40 41 42 43 44 45 46 47 48 49 50

000
ASUS43 KLMK 252010
RWRKY
KENTUCKY REGIONAL WEATHER ROUNDUP
NATIONAL WEATHER SERVICE LOUISVILLE KY
400 PM EDT MON MAY 25 2015

NOTE "FAIR" INDICATES FEW OR NO CLOUDS BELOW 12,000 FEET
WITH NO SIGNIFICANT WEATHER AND/OR OBSTRUCTIONS TO VISIBILITY.

KYZ001>023-026-027-061>063-070>075-252100-
WESTERN AND SOUTH CENTRAL KENTUCKY

CITY           SKY/WX    TMP DP  RH WIND       PRES   REMARKS
PADUCAH        CLOUDY    74  67  78 S5        30.07S
HENDERSON      CLOUDY    72  66  83 S13       30.08S
OWENSBORO      CLOUDY    73  68  84 S13       30.11S
HOPKINSVILLE   CLOUDY    70  67  92 S7        30.10F
BOWLING GREEN  LGT RAIN  71  66  84 E3        30.13F
GLASGOW        CLOUDY    70  66  89 CALM      30.13F
$$

KYZ024-025-028>034-038-045-046-053-252100-
NORTH CENTRAL KENTUCKY

CITY           SKY/WX    TMP DP  RH WIND       PRES   REMARKS
LOUISVILLE/SDF CLOUDY    74  66  76 S13       30.14S
LOUISVILLE/LOU PTSUNNY   74  66  76 S8G16     30.15S
FORT KNOX      LGT RAIN  72  66  83 S14       30.12F
$$

KYZ035>037-039>044-047>052-055>060-089>105-252100-
NORTHEAST KENTUCKY

CITY           SKY/WX    TMP DP  RH WIND       PRES   REMARKS
LEXINGTON      CLOUDY    76  62  62 SW10G21   30.17F
COVINGTON      CLOUDY    75  65  70 S17G23    30.14S
FRANKFORT      LGT RAIN  73  63  70 SW10      30.16S
$$

KYZ054-064>069-076>088-106>120-252100-
SOUTHEAST KENTUCKY

CITY           SKY/WX    TMP DP  RH WIND       PRES   REMARKS
JACKSON        PTSUNNY   81  62  52 VRB3      30.20F
LONDON         PTSUNNY   83  59  44 S8        30.19F
SOMERSET       CLOUDY    77  61  57 S8        30.18F
MIDDLESBORO    PTSUNNY   82  61  47 SE6       30.21F
MONTICELLO     CLOUDY    80  66  62 S9        30.20F
$$



USA.gov is the U.S. government's official web portal to all federal, state and local government web resources and services.